WXM80 ListenWXM80 Stop

You find our weather info also at:

UK Metoffice

WeatherCloud

Weather Underground

Northeastern Weather Network

AWEKAS

Citizen Weather Observer Program (CWOP)

HAMweather, WeatherForYou, PWS Weather


Weather Underground History page Text

Daily Summary for October 15, 2017 Units:  Both    English   Metric
« Previous Day
Next Day »
Daily Weekly Monthly Yearly Custom
  High: Low: Average:
Temperature: 74.8 °F /  23.8 °C 66.0 °F /  18.9 °C 68.6 °F /  20.3 °C
Dew Point: 69.0 °F /  20.6 °C 64.2 °F /  17.9 °C 65.9 °F /  18.8 °C
Humidity: 97 % 80 % 91 %
Wind Speed: 6.8 mph /  10.9 km/h - 1.3 mph /  2.1 km/h
Wind Gust: 11.5 mph /  18.5 km/h - -
Wind:- - SW
Pressure: 30.14 in /  1020.5 hPa 29.74 in /  1007 hPa -
Precipitation: 0.00 in /  0 mm    
Historical Graphs
 
 
Tabular Data for October 15, 2017
Time Temperature Dew Point Pressure Wind Wind Speed Wind Gust Humidity Rainfall Rate (Hourly)
00:02 66.8 °F /  19.3 °C 65.3 °F /  18.5 °C 30.11 in /  1019.5 hPa Calm   1.0 mph /  1.6 km/h 95 % 0.00 in /  0 mm
00:07 66.8 °F /  19.3 °C 65.3 °F /  18.5 °C 30.14 in /  1020.5 hPa Calm     95 % 0.00 in /  0 mm
00:12 66.8 °F /  19.3 °C 65.3 °F /  18.5 °C 30.14 in /  1020.5 hPa Calm     95 % 0.00 in /  0 mm
00:18 66.8 °F /  19.3 °C 65.3 °F /  18.5 °C 30.14 in /  1020.5 hPa Calm     95 % 0.00 in /  0 mm
00:20 66.8 °F /  19.3 °C 65.3 °F /  18.5 °C 30.11 in /  1019.5 hPa Calm     95 % 0.00 in /  0 mm
00:25 66.8 °F /  19.3 °C 65.3 °F /  18.5 °C 30.13 in /  1020.2 hPa Calm     95 % 0.00 in /  0 mm
00:30 66.8 °F /  19.3 °C 65.3 °F /  18.5 °C 30.13 in /  1020.2 hPa Calm     95 % 0.00 in /  0 mm
00:35 66.8 °F /  19.3 °C 65.3 °F /  18.5 °C 30.13 in /  1020.2 hPa Calm     95 % 0.00 in /  0 mm
00:41 66.8 °F /  19.3 °C 65.3 °F /  18.5 °C 30.13 in /  1020.2 hPa Calm     95 % 0.00 in /  0 mm
00:46 66.8 °F /  19.3 °C 65.3 °F /  18.5 °C 30.12 in /  1019.9 hPa Calm     95 % 0.00 in /  0 mm
00:51 66.7 °F /  19.3 °C 65.2 °F /  18.4 °C 30.12 in /  1019.9 hPa Calm     95 % 0.00 in /  0 mm
00:56 66.7 °F /  19.3 °C 65.2 °F /  18.4 °C 30.10 in /  1019.2 hPa Calm     95 % 0.00 in /  0 mm
01:01 66.7 °F /  19.3 °C 65.2 °F /  18.4 °C 30.10 in /  1019.2 hPa Calm     95 % 0.00 in /  0 mm
01:06 66.6 °F /  19.2 °C 64.8 °F /  18.2 °C 30.10 in /  1019.2 hPa Calm     94 % 0.00 in /  0 mm
01:11 66.7 °F /  19.3 °C 64.9 °F /  18.3 °C 30.12 in /  1019.9 hPa Calm     94 % 0.00 in /  0 mm
01:16 66.6 °F /  19.2 °C 64.8 °F /  18.2 °C 30.09 in /  1018.8 hPa Calm     94 % 0.00 in /  0 mm
01:21 66.6 °F /  19.2 °C 64.8 °F /  18.2 °C 30.10 in /  1019.2 hPa Calm     94 % 0.00 in /  0 mm
01:26 66.6 °F /  19.2 °C 64.8 °F /  18.2 °C 30.10 in /  1019.2 hPa Calm     94 % 0.00 in /  0 mm
01:31 66.6 °F /  19.2 °C 64.8 °F /  18.2 °C 30.10 in /  1019.2 hPa Calm     94 % 0.00 in /  0 mm
01:36 66.5 °F /  19.2 °C 64.7 °F /  18.2 °C 30.09 in /  1018.8 hPa Calm     94 % 0.00 in /  0 mm
01:40 66.5 °F /  19.2 °C 65.0 °F /  18.3 °C 30.09 in /  1018.8 hPa Calm     95 % 0.00 in /  0 mm
01:45 66.5 °F /  19.2 °C 65.0 °F /  18.3 °C 30.09 in /  1018.8 hPa Calm     95 % 0.00 in /  0 mm
01:51 66.5 °F /  19.2 °C 65.0 °F /  18.3 °C 30.09 in /  1018.8 hPa Calm     95 % 0.00 in /  0 mm
01:56 66.5 °F /  19.2 °C 65.0 °F /  18.3 °C 30.09 in /  1018.8 hPa Calm     95 % 0.00 in /  0 mm
02:01 66.5 °F /  19.2 °C 65.0 °F /  18.3 °C 30.08 in /  1018.5 hPa Calm   2.3 mph /  3.7 km/h 95 % 0.00 in /  0 mm
02:05 66.4 °F /  19.1 °C 64.9 °F /  18.3 °C 30.09 in /  1018.8 hPa Calm     95 % 0.00 in /  0 mm
02:11 66.4 °F /  19.1 °C 64.9 °F /  18.3 °C 30.09 in /  1018.8 hPa Calm   2.0 mph /  3.2 km/h 95 % 0.00 in /  0 mm
02:16 66.4 °F /  19.1 °C 64.9 °F /  18.3 °C 30.09 in /  1018.8 hPa Calm     95 % 0.00 in /  0 mm
02:20 66.4 °F /  19.1 °C 64.9 °F /  18.3 °C 30.09 in /  1018.8 hPa Calm     95 % 0.00 in /  0 mm
02:26 66.3 °F /  19.1 °C 64.8 °F /  18.2 °C 30.09 in /  1018.8 hPa Calm     95 % 0.00 in /  0 mm
02:31 66.3 °F /  19.1 °C 64.8 °F /  18.2 °C 30.09 in /  1018.8 hPa Calm   1.0 mph /  1.6 km/h 95 % 0.00 in /  0 mm
02:36 66.4 °F /  19.1 °C 64.9 °F /  18.3 °C 30.09 in /  1018.8 hPa Calm   1.0 mph /  1.6 km/h 95 % 0.00 in /  0 mm
02:41 66.3 °F /  19.1 °C 64.8 °F /  18.2 °C 30.08 in /  1018.5 hPa Calm   1.0 mph /  1.6 km/h 95 % 0.00 in /  0 mm
02:46 66.3 °F /  19.1 °C 64.8 °F /  18.2 °C 30.08 in /  1018.5 hPa Calm   1.0 mph /  1.6 km/h 95 % 0.00 in /  0 mm
02:51 66.3 °F /  19.1 °C 64.8 °F /  18.2 °C 30.08 in /  1018.5 hPa Calm   1.0 mph /  1.6 km/h 95 % 0.00 in /  0 mm
02:55 66.3 °F /  19.1 °C 64.8 °F /  18.2 °C 30.08 in /  1018.5 hPa Calm     95 % 0.00 in /  0 mm
03:00 66.3 °F /  19.1 °C 64.8 °F /  18.2 °C 30.07 in /  1018.2 hPa Calm     95 % 0.00 in /  0 mm
03:05 66.3 °F /  19.1 °C 64.8 °F /  18.2 °C 30.07 in /  1018.2 hPa Calm     95 % 0.00 in /  0 mm
03:10 66.3 °F /  19.1 °C 64.8 °F /  18.2 °C 30.07 in /  1018.2 hPa Calm   1.2 mph /  1.9 km/h 95 % 0.00 in /  0 mm
03:15 66.3 °F /  19.1 °C 64.8 °F /  18.2 °C 30.07 in /  1018.2 hPa Calm     95 % 0.00 in /  0 mm
03:20 66.3 °F /  19.1 °C 64.8 °F /  18.2 °C 30.07 in /  1018.2 hPa Calm     95 % 0.00 in /  0 mm
03:25 66.3 °F /  19.1 °C 64.8 °F /  18.2 °C 30.07 in /  1018.2 hPa WSW 0.1 mph /  0.2 km/h 1.2 mph /  1.9 km/h 95 % 0.00 in /  0 mm
03:30 66.3 °F /  19.1 °C 64.8 °F /  18.2 °C 30.06 in /  1017.8 hPa Calm   1.2 mph /  1.9 km/h 95 % 0.00 in /  0 mm
03:35 66.3 °F /  19.1 °C 64.8 °F /  18.2 °C 30.06 in /  1017.8 hPa Calm     95 % 0.00 in /  0 mm
03:41 66.3 °F /  19.1 °C 64.8 °F /  18.2 °C 30.06 in /  1017.8 hPa Calm     95 % 0.00 in /  0 mm
03:45 66.3 °F /  19.1 °C 64.8 °F /  18.2 °C 30.06 in /  1017.8 hPa Calm   1.0 mph /  1.6 km/h 95 % 0.00 in /  0 mm
03:50 66.3 °F /  19.1 °C 64.8 °F /  18.2 °C 30.06 in /  1017.8 hPa Calm     95 % 0.00 in /  0 mm
03:55 66.3 °F /  19.1 °C 64.8 °F /  18.2 °C 30.06 in /  1017.8 hPa Calm     95 % 0.00 in /  0 mm
03:58 66.2 °F /  19 °C 64.7 °F /  18.2 °C 30.06 in /  1017.8 hPa Calm     95 % 0.00 in /  0 mm
04:01 66.2 °F /  19 °C 64.7 °F /  18.2 °C 30.05 in /  1017.5 hPa Calm     95 % 0.00 in /  0 mm
04:06 66.2 °F /  19 °C 64.7 °F /  18.2 °C 30.06 in /  1017.8 hPa Calm     95 % 0.00 in /  0 mm
04:11 66.2 °F /  19 °C 64.7 °F /  18.2 °C 30.05 in /  1017.5 hPa Calm     95 % 0.00 in /  0 mm
04:16 66.2 °F /  19 °C 64.7 °F /  18.2 °C 30.05 in /  1017.5 hPa Calm     95 % 0.00 in /  0 mm
04:21 66.2 °F /  19 °C 64.7 °F /  18.2 °C 30.05 in /  1017.5 hPa Calm     95 % 0.00 in /  0 mm
04:26 66.2 °F /  19 °C 64.7 °F /  18.2 °C 30.08 in /  1018.5 hPa Calm     95 % 0.00 in /  0 mm
04:31 66.2 °F /  19 °C 64.7 °F /  18.2 °C 30.08 in /  1018.5 hPa Calm     95 % 0.00 in /  0 mm
04:36 66.1 °F /  18.9 °C 64.6 °F /  18.1 °C 30.05 in /  1017.5 hPa Calm     95 % 0.00 in /  0 mm
04:41 66.1 °F /  18.9 °C 64.6 °F /  18.1 °C 30.04 in /  1017.2 hPa Calm     95 % 0.00 in /  0 mm
04:46 66.1 °F /  18.9 °C 64.6 °F /  18.1 °C 30.05 in /  1017.5 hPa Calm     95 % 0.00 in /  0 mm
04:48 66.1 °F /  18.9 °C 64.6 °F /  18.1 °C 30.05 in /  1017.5 hPa Calm     95 % 0.00 in /  0 mm
04:53 66.1 °F /  18.9 °C 64.6 °F /  18.1 °C 30.07 in /  1018.2 hPa Calm     95 % 0.00 in /  0 mm
04:58 66.1 °F /  18.9 °C 64.6 °F /  18.1 °C 30.08 in /  1018.5 hPa Calm     95 % 0.00 in /  0 mm
05:03 66.1 °F /  18.9 °C 64.6 °F /  18.1 °C 30.07 in /  1018.2 hPa Calm     95 % 0.00 in /  0 mm
05:08 66.1 °F /  18.9 °C 64.6 °F /  18.1 °C 30.04 in /  1017.2 hPa Calm     95 % 0.00 in /  0 mm
05:13 66.1 °F /  18.9 °C 64.6 °F /  18.1 °C 30.07 in /  1018.2 hPa Calm     95 % 0.00 in /  0 mm
05:18 66.1 °F /  18.9 °C 64.9 °F /  18.3 °C 30.04 in /  1017.2 hPa Calm     96 % 0.00 in /  0 mm
05:23 66.1 °F /  18.9 °C 64.9 °F /  18.3 °C 30.05 in /  1017.5 hPa Calm     96 % 0.00 in /  0 mm
05:28 66.1 °F /  18.9 °C 64.9 °F /  18.3 °C 30.05 in /  1017.5 hPa Calm     96 % 0.00 in /  0 mm
05:33 66.1 °F /  18.9 °C 64.9 °F /  18.3 °C 30.04 in /  1017.2 hPa Calm     96 % 0.00 in /  0 mm
05:38 66.1 °F /  18.9 °C 64.6 °F /  18.1 °C 30.05 in /  1017.5 hPa Calm     95 % 0.00 in /  0 mm
05:43 66.1 °F /  18.9 °C 64.9 °F /  18.3 °C 30.05 in /  1017.5 hPa Calm     96 % 0.00 in /  0 mm
05:48 66.1 °F /  18.9 °C 64.9 °F /  18.3 °C 30.04 in /  1017.2 hPa Calm     96 % 0.00 in /  0 mm
05:53 66.0 °F /  18.9 °C 64.8 °F /  18.2 °C 30.04 in /  1017.2 hPa Calm     96 % 0.00 in /  0 mm
05:59 66.1 °F /  18.9 °C 64.9 °F /  18.3 °C 30.04 in /  1017.2 hPa Calm     96 % 0.00 in /  0 mm
06:04 66.1 °F /  18.9 °C 64.9 °F /  18.3 °C 30.03 in /  1016.8 hPa Calm     96 % 0.00 in /  0 mm
06:09 66.1 °F /  18.9 °C 64.9 °F /  18.3 °C 30.03 in /  1016.8 hPa Calm     96 % 0.00 in /  0 mm
06:14 66.1 °F /  18.9 °C 64.9 °F /  18.3 °C 30.03 in /  1016.8 hPa Calm     96 % 0.00 in /  0 mm
06:19 66.1 °F /  18.9 °C 64.9 °F /  18.3 °C 30.02 in /  1016.5 hPa Calm     96 % 0.00 in /  0 mm
06:24 66.1 °F /  18.9 °C 64.9 °F /  18.3 °C 30.02 in /  1016.5 hPa Calm     96 % 0.00 in /  0 mm
06:29 66.1 °F /  18.9 °C 64.9 °F /  18.3 °C 30.02 in /  1016.5 hPa Calm     96 % 0.00 in /  0 mm
06:34 66.1 °F /  18.9 °C 64.9 °F /  18.3 °C 30.02 in /  1016.5 hPa Calm     96 % 0.00 in /  0 mm
06:39 66.1 °F /  18.9 °C 64.9 °F /  18.3 °C 30.02 in /  1016.5 hPa Calm     96 % 0.00 in /  0 mm
06:44 66.1 °F /  18.9 °C 64.9 °F /  18.3 °C 30.02 in /  1016.5 hPa Calm     96 % 0.00 in /  0 mm
06:49 66.1 °F /  18.9 °C 64.9 °F /  18.3 °C 30.02 in /  1016.5 hPa Calm     96 % 0.00 in /  0 mm
06:54 66.1 °F /  18.9 °C 64.9 °F /  18.3 °C 30.02 in /  1016.5 hPa Calm     96 % 0.00 in /  0 mm
06:59 66.1 °F /  18.9 °C 64.9 °F /  18.3 °C 30.02 in /  1016.5 hPa Calm     96 % 0.00 in /  0 mm
07:04 66.1 °F /  18.9 °C 64.9 °F /  18.3 °C 30.02 in /  1016.5 hPa Calm     96 % 0.00 in /  0 mm
07:09 66.1 °F /  18.9 °C 64.9 °F /  18.3 °C 30.02 in /  1016.5 hPa Calm   1.2 mph /  1.9 km/h 96 % 0.00 in /  0 mm
07:15 66.1 °F /  18.9 °C 64.9 °F /  18.3 °C 30.02 in /  1016.5 hPa Calm     96 % 0.00 in /  0 mm
07:20 66.1 °F /  18.9 °C 64.9 °F /  18.3 °C 30.01 in /  1016.1 hPa Calm     96 % 0.00 in /  0 mm
07:25 66.1 °F /  18.9 °C 64.9 °F /  18.3 °C 30.01 in /  1016.1 hPa Calm     96 % 0.00 in /  0 mm
07:30 66.1 °F /  18.9 °C 64.9 °F /  18.3 °C 30.01 in /  1016.1 hPa Calm     96 % 0.00 in /  0 mm
07:35 66.1 °F /  18.9 °C 64.9 °F /  18.3 °C 30.01 in /  1016.1 hPa Calm     96 % 0.00 in /  0 mm
07:40 66.1 °F /  18.9 °C 64.9 °F /  18.3 °C 30.02 in /  1016.5 hPa Calm     96 % 0.00 in /  0 mm
07:45 66.2 °F /  19 °C 65.0 °F /  18.3 °C 30.02 in /  1016.5 hPa Calm     96 % 0.00 in /  0 mm
07:50 66.2 °F /  19 °C 65.0 °F /  18.3 °C 30.01 in /  1016.1 hPa Calm     96 % 0.00 in /  0 mm
07:55 66.2 °F /  19 °C 65.0 °F /  18.3 °C 30.02 in /  1016.5 hPa Calm     96 % 0.00 in /  0 mm
08:00 66.2 °F /  19 °C 65.0 °F /  18.3 °C 30.02 in /  1016.5 hPa Calm     96 % 0.00 in /  0 mm
08:05 66.3 °F /  19.1 °C 65.1 °F /  18.4 °C 30.02 in /  1016.5 hPa Calm     96 % 0.00 in /  0 mm
08:10 66.3 °F /  19.1 °C 65.1 °F /  18.4 °C 30.02 in /  1016.5 hPa Calm     96 % 0.00 in /  0 mm
08:15 66.4 °F /  19.1 °C 65.5 °F /  18.6 °C 30.02 in /  1016.5 hPa Calm     97 % 0.00 in /  0 mm
08:20 66.4 °F /  19.1 °C 65.5 °F /  18.6 °C 30.01 in /  1016.1 hPa Calm     97 % 0.00 in /  0 mm
08:25 66.5 °F /  19.2 °C 65.6 °F /  18.7 °C 30.01 in /  1016.1 hPa WSW 1.3 mph /  2.1 km/h 2.3 mph /  3.7 km/h 97 % 0.00 in /  0 mm
08:31 66.5 °F /  19.2 °C 65.6 °F /  18.7 °C 30.01 in /  1016.1 hPa Calm     97 % 0.00 in /  0 mm
08:36 66.6 °F /  19.2 °C 65.7 °F /  18.7 °C 30.02 in /  1016.5 hPa Calm   2.3 mph /  3.7 km/h 97 % 0.00 in /  0 mm
08:41 66.7 °F /  19.3 °C 65.8 °F /  18.8 °C 30.01 in /  1016.1 hPa Calm   1.0 mph /  1.6 km/h 97 % 0.00 in /  0 mm
08:46 66.8 °F /  19.3 °C 65.9 °F /  18.8 °C 30.01 in /  1016.1 hPa WSW 1.0 mph /  1.6 km/h 3.0 mph /  4.8 km/h 97 % 0.00 in /  0 mm
08:51 66.8 °F /  19.3 °C 65.9 °F /  18.8 °C 30.01 in /  1016.1 hPa Calm     97 % 0.00 in /  0 mm
08:56 66.9 °F /  19.4 °C 66.0 °F /  18.9 °C 30.01 in /  1016.1 hPa Calm   1.0 mph /  1.6 km/h 97 % 0.00 in /  0 mm
09:01 66.9 °F /  19.4 °C 66.0 °F /  18.9 °C 30.01 in /  1016.1 hPa WSW 0.2 mph /  0.3 km/h 1.2 mph /  1.9 km/h 97 % 0.00 in /  0 mm
09:06 67.0 °F /  19.4 °C 66.1 °F /  18.9 °C 30.01 in /  1016.1 hPa Calm   6.0 mph /  9.7 km/h 97 % 0.00 in /  0 mm
09:11 67.1 °F /  19.5 °C 66.2 °F /  19 °C 30.01 in /  1016.1 hPa SW 1.0 mph /  1.6 km/h 5.0 mph /  8 km/h 97 % 0.00 in /  0 mm
09:16 67.2 °F /  19.6 °C 66.3 °F /  19.1 °C 30.01 in /  1016.1 hPa SW 2.0 mph /  3.2 km/h 4.0 mph /  6.4 km/h 97 % 0.00 in /  0 mm
09:21 67.2 °F /  19.6 °C 66.3 °F /  19.1 °C 30.01 in /  1016.1 hPa Calm   3.0 mph /  4.8 km/h 97 % 0.00 in /  0 mm
09:26 67.3 °F /  19.6 °C 66.4 °F /  19.1 °C 30.01 in /  1016.1 hPa SSW 1.8 mph /  2.9 km/h 6.0 mph /  9.7 km/h 97 % 0.00 in /  0 mm
09:31 67.4 °F /  19.7 °C 66.5 °F /  19.2 °C 30.00 in /  1015.8 hPa Calm     97 % 0.00 in /  0 mm
09:36 67.5 °F /  19.7 °C 66.6 °F /  19.2 °C 30.01 in /  1016.1 hPa SW 0.1 mph /  0.2 km/h 2.3 mph /  3.7 km/h 97 % 0.00 in /  0 mm
09:41 67.7 °F /  19.8 °C 66.8 °F /  19.3 °C 30.00 in /  1015.8 hPa SW 1.5 mph /  2.4 km/h 3.5 mph /  5.6 km/h 97 % 0.00 in /  0 mm
09:46 67.8 °F /  19.9 °C 66.9 °F /  19.4 °C 30.00 in /  1015.8 hPa SW 0.7 mph /  1.1 km/h 3.0 mph /  4.8 km/h 97 % 0.00 in /  0 mm
09:51 67.9 °F /  19.9 °C 67.0 °F /  19.4 °C 30.00 in /  1015.8 hPa SW 0.7 mph /  1.1 km/h 3.5 mph /  5.6 km/h 97 % 0.00 in /  0 mm
09:56 68.0 °F /  20 °C 67.1 °F /  19.5 °C 29.99 in /  1015.5 hPa SW 1.3 mph /  2.1 km/h 3.5 mph /  5.6 km/h 97 % 0.00 in /  0 mm
10:01 68.1 °F /  20.1 °C 67.2 °F /  19.6 °C 29.99 in /  1015.5 hPa Calm     97 % 0.00 in /  0 mm
10:06 68.2 °F /  20.1 °C 67.3 °F /  19.6 °C 29.99 in /  1015.5 hPa West 0.8 mph /  1.3 km/h 3.5 mph /  5.6 km/h 97 % 0.00 in /  0 mm
10:11 68.3 °F /  20.2 °C 67.4 °F /  19.7 °C 29.99 in /  1015.5 hPa WSW 2.0 mph /  3.2 km/h 3.5 mph /  5.6 km/h 97 % 0.00 in /  0 mm
10:16 68.3 °F /  20.2 °C 67.4 °F /  19.7 °C 29.98 in /  1015.1 hPa WSW 0.4 mph /  0.6 km/h 2.0 mph /  3.2 km/h 97 % 0.00 in /  0 mm
10:17 68.3 °F /  20.2 °C 67.4 °F /  19.7 °C 29.98 in /  1015.1 hPa WSW 0.3 mph /  0.5 km/h 2.3 mph /  3.7 km/h 97 % 0.00 in /  0 mm
10:22 68.4 °F /  20.2 °C 67.5 °F /  19.7 °C 30.01 in /  1016.1 hPa SSW 2.4 mph /  3.9 km/h 4.6 mph /  7.4 km/h 97 % 0.00 in /  0 mm
10:27 68.4 °F /  20.2 °C 67.5 °F /  19.7 °C 29.99 in /  1015.5 hPa SW 0.2 mph /  0.3 km/h 3.5 mph /  5.6 km/h 97 % 0.00 in /  0 mm
10:32 68.5 °F /  20.3 °C 67.6 °F /  19.8 °C 29.98 in /  1015.1 hPa SE 1.5 mph /  2.4 km/h 3.5 mph /  5.6 km/h 97 % 0.00 in /  0 mm
10:37 68.4 °F /  20.2 °C 67.5 °F /  19.7 °C 29.98 in /  1015.1 hPa Calm   1.2 mph /  1.9 km/h 97 % 0.00 in /  0 mm
10:42 68.5 °F /  20.3 °C 67.6 °F /  19.8 °C 29.98 in /  1015.1 hPa Calm   2.3 mph /  3.7 km/h 97 % 0.00 in /  0 mm
10:47 68.6 °F /  20.3 °C 67.7 °F /  19.8 °C 29.98 in /  1015.1 hPa Calm   1.0 mph /  1.6 km/h 97 % 0.00 in /  0 mm
10:52 68.7 °F /  20.4 °C 67.5 °F /  19.7 °C 29.97 in /  1014.8 hPa SSE 0.5 mph /  0.8 km/h 3.0 mph /  4.8 km/h 96 % 0.00 in /  0 mm
10:57 68.7 °F /  20.4 °C 67.5 °F /  19.7 °C 29.97 in /  1014.8 hPa SSW 0.6 mph /  1 km/h 2.3 mph /  3.7 km/h 96 % 0.00 in /  0 mm
11:02 68.8 °F /  20.4 °C 67.6 °F /  19.8 °C 29.97 in /  1014.8 hPa SW 2.4 mph /  3.9 km/h 4.6 mph /  7.4 km/h 96 % 0.00 in /  0 mm
11:07 68.9 °F /  20.5 °C 67.7 °F /  19.8 °C 29.96 in /  1014.4 hPa SW 0.6 mph /  1 km/h 3.5 mph /  5.6 km/h 96 % 0.00 in /  0 mm
11:12 69.0 °F /  20.6 °C 67.8 °F /  19.9 °C 29.96 in /  1014.4 hPa SW 0.1 mph /  0.2 km/h 1.2 mph /  1.9 km/h 96 % 0.00 in /  0 mm
11:17 69.1 °F /  20.6 °C 67.9 °F /  19.9 °C 29.96 in /  1014.4 hPa SW 0.7 mph /  1.1 km/h 2.3 mph /  3.7 km/h 96 % 0.00 in /  0 mm
11:22 69.2 °F /  20.7 °C 67.7 °F /  19.8 °C 29.96 in /  1014.4 hPa South 0.5 mph /  0.8 km/h 3.5 mph /  5.6 km/h 95 % 0.00 in /  0 mm
11:27 69.3 °F /  20.7 °C 67.8 °F /  19.9 °C 29.96 in /  1014.4 hPa WSW 0.3 mph /  0.5 km/h 3.5 mph /  5.6 km/h 95 % 0.00 in /  0 mm
11:32 69.4 °F /  20.8 °C 67.9 °F /  19.9 °C 29.96 in /  1014.4 hPa SW 2.1 mph /  3.4 km/h 4.6 mph /  7.4 km/h 95 % 0.00 in /  0 mm
11:37 69.4 °F /  20.8 °C 67.6 °F /  19.8 °C 29.95 in /  1014.1 hPa West 1.4 mph /  2.3 km/h 1.4 mph /  2.3 km/h 94 % 0.00 in /  0 mm
11:43 69.4 °F /  20.8 °C 67.6 °F /  19.8 °C 29.96 in /  1014.4 hPa SW 0.5 mph /  0.8 km/h 3.5 mph /  5.6 km/h 94 % 0.00 in /  0 mm
11:48 69.4 °F /  20.8 °C 67.3 °F /  19.6 °C 29.95 in /  1014.1 hPa SSE 0.5 mph /  0.8 km/h 2.3 mph /  3.7 km/h 93 % 0.00 in /  0 mm
11:53 69.4 °F /  20.8 °C 67.3 °F /  19.6 °C 29.95 in /  1014.1 hPa SSW 1.5 mph /  2.4 km/h 5.8 mph /  9.3 km/h 93 % 0.00 in /  0 mm
11:58 69.4 °F /  20.8 °C 67.3 °F /  19.6 °C 29.95 in /  1014.1 hPa WSW 1.2 mph /  1.9 km/h 3.0 mph /  4.8 km/h 93 % 0.00 in /  0 mm
12:03 69.5 °F /  20.8 °C 67.4 °F /  19.7 °C 29.95 in /  1014.1 hPa SW 5.1 mph /  8.2 km/h 8.1 mph /  13 km/h 93 % 0.00 in /  0 mm
12:08 69.5 °F /  20.8 °C 67.1 °F /  19.5 °C 29.95 in /  1014.1 hPa SW 6.2 mph /  10 km/h 8.0 mph /  12.9 km/h 92 % 0.00 in /  0 mm
12:13 69.6 °F /  20.9 °C 67.2 °F /  19.6 °C 29.94 in /  1013.8 hPa WSW 4.2 mph /  6.8 km/h 9.2 mph /  14.8 km/h 92 % 0.00 in /  0 mm
12:18 69.7 °F /  20.9 °C 67.3 °F /  19.6 °C 29.94 in /  1013.8 hPa NW 3.7 mph /  6 km/h 8.1 mph /  13 km/h 92 % 0.00 in /  0 mm
12:23 69.7 °F /  20.9 °C 67.0 °F /  19.4 °C 29.93 in /  1013.4 hPa SSE 2.2 mph /  3.5 km/h 8.1 mph /  13 km/h 91 % 0.00 in /  0 mm
12:28 69.7 °F /  20.9 °C 67.0 °F /  19.4 °C 29.93 in /  1013.4 hPa WSW 1.3 mph /  2.1 km/h 4.6 mph /  7.4 km/h 91 % 0.00 in /  0 mm
12:33 69.8 °F /  21 °C 67.1 °F /  19.5 °C 29.93 in /  1013.4 hPa SW 2.6 mph /  4.2 km/h 5.8 mph /  9.3 km/h 91 % 0.00 in /  0 mm
12:38 69.9 °F /  21.1 °C 67.2 °F /  19.6 °C 29.93 in /  1013.4 hPa SSW 5.2 mph /  8.4 km/h 9.2 mph /  14.8 km/h 91 % 0.00 in /  0 mm
12:43 70.0 °F /  21.1 °C 67.3 °F /  19.6 °C 29.93 in /  1013.4 hPa SSW 3.8 mph /  6.1 km/h 6.9 mph /  11.1 km/h 91 % 0.00 in /  0 mm
12:48 70.1 °F /  21.2 °C 67.3 °F /  19.6 °C 29.92 in /  1013.1 hPa WSW 1.0 mph /  1.6 km/h 3.5 mph /  5.6 km/h 91 % 0.00 in /  0 mm
12:53 70.2 °F /  21.2 °C 67.4 °F /  19.7 °C 29.92 in /  1013.1 hPa SW 4.1 mph /  6.6 km/h 11.5 mph /  18.5 km/h 91 % 0.00 in /  0 mm
12:58 70.3 °F /  21.3 °C 67.5 °F /  19.7 °C 29.92 in /  1013.1 hPa WSW 2.1 mph /  3.4 km/h 2.3 mph /  3.7 km/h 91 % 0.00 in /  0 mm
13:03 70.4 °F /  21.3 °C 67.6 °F /  19.8 °C 29.92 in /  1013.1 hPa Calm   2.3 mph /  3.7 km/h 91 % 0.00 in /  0 mm
13:08 70.6 °F /  21.4 °C 68.2 °F /  20.1 °C 29.91 in /  1012.8 hPa West 1.1 mph /  1.8 km/h 1.1 mph /  1.8 km/h 92 % 0.00 in /  0 mm
13:13 70.7 °F /  21.5 °C 67.9 °F /  19.9 °C 29.90 in /  1012.4 hPa SW 1.2 mph /  1.9 km/h 3.5 mph /  5.6 km/h 91 % 0.00 in /  0 mm
13:19 70.9 °F /  21.6 °C 68.1 °F /  20.1 °C 29.90 in /  1012.4 hPa SSW 2.3 mph /  3.7 km/h 5.0 mph /  8 km/h 91 % 0.00 in /  0 mm
13:24 71.1 °F /  21.7 °C 68.3 °F /  20.2 °C 29.90 in /  1012.4 hPa WSW 4.0 mph /  6.4 km/h 6.0 mph /  9.7 km/h 91 % 0.00 in /  0 mm
13:29 71.2 °F /  21.8 °C 68.1 °F /  20.1 °C 29.90 in /  1012.4 hPa SW 1.2 mph /  1.9 km/h 3.5 mph /  5.6 km/h 90 % 0.00 in /  0 mm
13:34 71.3 °F /  21.8 °C 68.2 °F /  20.1 °C 29.89 in /  1012.1 hPa Calm     90 % 0.00 in /  0 mm
13:39 71.5 °F /  21.9 °C 68.1 °F /  20.1 °C 29.89 in /  1012.1 hPa West 2.5 mph /  4 km/h 6.9 mph /  11.1 km/h 89 % 0.00 in /  0 mm
13:43 71.6 °F /  22 °C 68.2 °F /  20.1 °C 29.89 in /  1012.1 hPa WSW 3.8 mph /  6.1 km/h 6.9 mph /  11.1 km/h 89 % 0.00 in /  0 mm
13:49 71.7 °F /  22.1 °C 68.3 °F /  20.2 °C 29.88 in /  1011.7 hPa SSW 6.3 mph /  10.1 km/h 7.0 mph /  11.3 km/h 89 % 0.00 in /  0 mm
13:54 71.9 °F /  22.2 °C 68.2 °F /  20.1 °C 29.88 in /  1011.7 hPa South 5.1 mph /  8.2 km/h 8.1 mph /  13 km/h 88 % 0.00 in /  0 mm
13:59 72.0 °F /  22.2 °C 68.2 °F /  20.1 °C 29.87 in /  1011.4 hPa SSW 2.0 mph /  3.2 km/h 5.0 mph /  8 km/h 88 % 0.00 in /  0 mm
14:04 72.2 °F /  22.3 °C 68.4 °F /  20.2 °C 29.87 in /  1011.4 hPa SSW 2.9 mph /  4.7 km/h 5.0 mph /  8 km/h 88 % 0.00 in /  0 mm
14:09 72.5 °F /  22.5 °C 68.7 °F /  20.4 °C 29.86 in /  1011.1 hPa South 2.5 mph /  4 km/h 4.6 mph /  7.4 km/h 88 % 0.00 in /  0 mm
14:14 73.0 °F /  22.8 °C 68.9 °F /  20.5 °C 29.86 in /  1011.1 hPa ESE 3.0 mph /  4.8 km/h 6.9 mph /  11.1 km/h 87 % 0.00 in /  0 mm
14:19 73.3 °F /  22.9 °C 68.9 °F /  20.5 °C 29.86 in /  1011.1 hPa SW 2.2 mph /  3.5 km/h 4.6 mph /  7.4 km/h 86 % 0.00 in /  0 mm
14:24 73.8 °F /  23.2 °C 69.0 °F /  20.6 °C 29.86 in /  1011.1 hPa SSW 5.7 mph /  9.2 km/h 10.4 mph /  16.7 km/h 85 % 0.00 in /  0 mm
14:29 74.1 °F /  23.4 °C 69.0 °F /  20.6 °C 29.86 in /  1011.1 hPa SW 1.9 mph /  3.1 km/h 7.0 mph /  11.3 km/h 84 % 0.00 in /  0 mm
14:34 74.4 °F /  23.6 °C 68.9 °F /  20.5 °C 29.86 in /  1011.1 hPa South 0.7 mph /  1.1 km/h 1.2 mph /  1.9 km/h 83 % 0.00 in /  0 mm
14:39 74.6 °F /  23.7 °C 68.7 °F /  20.4 °C 29.86 in /  1011.1 hPa SSW 4.0 mph /  6.4 km/h 9.2 mph /  14.8 km/h 82 % 0.00 in /  0 mm
14:44 74.8 °F /  23.8 °C 68.6 °F /  20.3 °C 29.86 in /  1011.1 hPa WSW 1.1 mph /  1.8 km/h 4.6 mph /  7.4 km/h 81 % 0.00 in /  0 mm
14:49 74.7 °F /  23.7 °C 68.1 °F /  20.1 °C 29.87 in /  1011.4 hPa SW 4.3 mph /  6.9 km/h 5.8 mph /  9.3 km/h 80 % 0.00 in /  0 mm
14:54 74.7 °F /  23.7 °C 68.5 °F /  20.3 °C 29.86 in /  1011.1 hPa WSW 1.2 mph /  1.9 km/h 3.5 mph /  5.6 km/h 81 % 0.00 in /  0 mm
14:59 74.6 °F /  23.7 °C 68.0 °F /  20 °C 29.86 in /  1011.1 hPa SW 4.2 mph /  6.8 km/h 9.2 mph /  14.8 km/h 80 % 0.00 in /  0 mm
15:04 74.4 °F /  23.6 °C 67.8 °F /  19.9 °C 29.85 in /  1010.7 hPa WSW 3.6 mph /  5.8 km/h 5.8 mph /  9.3 km/h 80 % 0.00 in /  0 mm
15:09 74.2 °F /  23.4 °C 68.0 °F /  20 °C 29.85 in /  1010.7 hPa SSW 1.5 mph /  2.4 km/h 4.6 mph /  7.4 km/h 81 % 0.00 in /  0 mm
15:14 74.2 °F /  23.4 °C 68.0 °F /  20 °C 29.84 in /  1010.4 hPa SSE 1.9 mph /  3.1 km/h 3.5 mph /  5.6 km/h 81 % 0.00 in /  0 mm
15:19 74.1 °F /  23.4 °C 68.3 °F /  20.2 °C 29.84 in /  1010.4 hPa SSW 1.3 mph /  2.1 km/h 3.5 mph /  5.6 km/h 82 % 0.00 in /  0 mm
15:24 74.0 °F /  23.3 °C 67.8 °F /  19.9 °C 29.84 in /  1010.4 hPa SW 1.6 mph /  2.6 km/h 6.9 mph /  11.1 km/h 81 % 0.00 in /  0 mm
15:29 73.9 °F /  23.3 °C 68.1 °F /  20.1 °C 29.84 in /  1010.4 hPa WNW 0.7 mph /  1.1 km/h 2.3 mph /  3.7 km/h 82 % 0.00 in /  0 mm
15:34 73.8 °F /  23.2 °C 68.0 °F /  20 °C 29.83 in /  1010 hPa WSW 0.1 mph /  0.2 km/h 2.0 mph /  3.2 km/h 82 % 0.00 in /  0 mm
15:39 73.8 °F /  23.2 °C 68.0 °F /  20 °C 29.83 in /  1010 hPa WSW 1.2 mph /  1.9 km/h 5.8 mph /  9.3 km/h 82 % 0.00 in /  0 mm
15:44 73.8 °F /  23.2 °C 68.3 °F /  20.2 °C 29.83 in /  1010 hPa SSW 1.7 mph /  2.7 km/h 3.5 mph /  5.6 km/h 83 % 0.00 in /  0 mm
15:49 73.7 °F /  23.2 °C 67.9 °F /  19.9 °C 29.83 in /  1010 hPa SSE 0.3 mph /  0.5 km/h 2.3 mph /  3.7 km/h 82 % 0.00 in /  0 mm
15:54 73.6 °F /  23.1 °C 68.1 °F /  20.1 °C 29.83 in /  1010 hPa SSW 1.5 mph /  2.4 km/h 4.6 mph /  7.4 km/h 83 % 0.00 in /  0 mm
15:59 73.5 °F /  23.1 °C 68.0 °F /  20 °C 29.82 in /  1009.7 hPa SSW 1.4 mph /  2.3 km/h 4.0 mph /  6.4 km/h 83 % 0.00 in /  0 mm
16:04 73.5 °F /  23.1 °C 68.0 °F /  20 °C 29.83 in /  1010 hPa SSW 2.0 mph /  3.2 km/h 3.5 mph /  5.6 km/h 83 % 0.00 in /  0 mm
16:09 73.4 °F /  23 °C 67.9 °F /  19.9 °C 29.85 in /  1010.7 hPa SSW 1.2 mph /  1.9 km/h 6.9 mph /  11.1 km/h 83 % 0.00 in /  0 mm
16:14 73.3 °F /  22.9 °C 67.8 °F /  19.9 °C 29.85 in /  1010.7 hPa SSW 0.9 mph /  1.4 km/h 3.5 mph /  5.6 km/h 83 % 0.00 in /  0 mm
16:19 73.2 °F /  22.9 °C 67.7 °F /  19.8 °C 29.82 in /  1009.7 hPa SSW 0.3 mph /  0.5 km/h 4.6 mph /  7.4 km/h 83 % 0.00 in /  0 mm
16:25 73.1 °F /  22.8 °C 67.6 °F /  19.8 °C 29.83 in /  1010 hPa SSW 1.7 mph /  2.7 km/h 3.5 mph /  5.6 km/h 83 % 0.00 in /  0 mm
16:30 73.0 °F /  22.8 °C 67.5 °F /  19.7 °C 29.84 in /  1010.4 hPa South 3.5 mph /  5.6 km/h 8.1 mph /  13 km/h 83 % 0.00 in /  0 mm
16:35 72.9 °F /  22.7 °C 67.4 °F /  19.7 °C 29.81 in /  1009.4 hPa WSW 2.2 mph /  3.5 km/h 3.5 mph /  5.6 km/h 83 % 0.00 in /  0 mm
16:40 72.8 °F /  22.7 °C 67.0 °F /  19.4 °C 29.81 in /  1009.4 hPa SW 2.9 mph /  4.7 km/h 6.9 mph /  11.1 km/h 82 % 0.00 in /  0 mm
16:45 72.6 °F /  22.6 °C 66.8 °F /  19.3 °C 29.80 in /  1009 hPa SW 1.0 mph /  1.6 km/h 3.0 mph /  4.8 km/h 82 % 0.00 in /  0 mm
16:50 72.5 °F /  22.5 °C 67.0 °F /  19.4 °C 29.81 in /  1009.4 hPa SW 0.4 mph /  0.6 km/h 3.5 mph /  5.6 km/h 83 % 0.00 in /  0 mm
16:55 72.4 °F /  22.4 °C 66.9 °F /  19.4 °C 29.81 in /  1009.4 hPa South 4.5 mph /  7.2 km/h 8.1 mph /  13 km/h 83 % 0.00 in /  0 mm
17:00 72.2 °F /  22.3 °C 66.4 °F /  19.1 °C 29.80 in /  1009 hPa SW 2.0 mph /  3.2 km/h 9.2 mph /  14.8 km/h 82 % 0.00 in /  0 mm
17:05 72.1 °F /  22.3 °C 66.3 °F /  19.1 °C 29.80 in /  1009 hPa West 4.0 mph /  6.4 km/h 7.0 mph /  11.3 km/h 82 % 0.00 in /  0 mm
17:10 72.0 °F /  22.2 °C 66.2 °F /  19 °C 29.80 in /  1009 hPa SSW 2.3 mph /  3.7 km/h 5.0 mph /  8 km/h 82 % 0.00 in /  0 mm
17:15 71.9 °F /  22.2 °C 66.1 °F /  18.9 °C 29.80 in /  1009 hPa SSW 3.3 mph /  5.3 km/h 8.1 mph /  13 km/h 82 % 0.00 in /  0 mm
17:20 71.8 °F /  22.1 °C 66.0 °F /  18.9 °C 29.81 in /  1009.4 hPa SSW 3.6 mph /  5.8 km/h 6.9 mph /  11.1 km/h 82 % 0.00 in /  0 mm
17:25 71.7 °F /  22.1 °C 65.9 °F /  18.8 °C 29.83 in /  1010 hPa SW 6.0 mph /  9.7 km/h 11.5 mph /  18.5 km/h 82 % 0.00 in /  0 mm
17:30 71.5 °F /  21.9 °C 65.7 °F /  18.7 °C 29.81 in /  1009.4 hPa SSW 3.9 mph /  6.3 km/h 5.8 mph /  9.3 km/h 82 % 0.00 in /  0 mm
17:35 71.5 °F /  21.9 °C 65.7 °F /  18.7 °C 29.83 in /  1010 hPa SW 2.5 mph /  4 km/h 5.8 mph /  9.3 km/h 82 % 0.00 in /  0 mm
17:40 71.4 °F /  21.9 °C 65.6 °F /  18.7 °C 29.82 in /  1009.7 hPa SSW 4.4 mph /  7.1 km/h 10.4 mph /  16.7 km/h 82 % 0.00 in /  0 mm
17:45 71.3 °F /  21.8 °C 65.5 °F /  18.6 °C 29.83 in /  1010 hPa SSW 2.1 mph /  3.4 km/h 5.8 mph /  9.3 km/h 82 % 0.00 in /  0 mm
17:51 71.2 °F /  21.8 °C 65.8 °F /  18.8 °C 29.81 in /  1009.4 hPa SSW 2.3 mph /  3.7 km/h 4.0 mph /  6.4 km/h 83 % 0.00 in /  0 mm
17:56 71.1 °F /  21.7 °C 65.7 °F /  18.7 °C 29.82 in /  1009.7 hPa SSW 3.0 mph /  4.8 km/h 6.0 mph /  9.7 km/h 83 % 0.00 in /  0 mm
18:01 71.0 °F /  21.7 °C 65.9 °F /  18.8 °C 29.81 in /  1009.4 hPa South 1.5 mph /  2.4 km/h 3.5 mph /  5.6 km/h 84 % 0.00 in /  0 mm
18:06 71.0 °F /  21.7 °C 65.9 °F /  18.8 °C 29.83 in /  1010 hPa SSW 2.7 mph /  4.3 km/h 6.9 mph /  11.1 km/h 84 % 0.00 in /  0 mm
18:11 70.8 °F /  21.6 °C 65.7 °F /  18.7 °C 29.83 in /  1010 hPa SSW 4.0 mph /  6.4 km/h 5.8 mph /  9.3 km/h 84 % 0.00 in /  0 mm
18:16 70.7 °F /  21.5 °C 65.6 °F /  18.7 °C 29.81 in /  1009.4 hPa WSW 2.9 mph /  4.7 km/h 11.5 mph /  18.5 km/h 84 % 0.00 in /  0 mm
18:21 70.6 °F /  21.4 °C 65.9 °F /  18.8 °C 29.80 in /  1009 hPa SW 2.6 mph /  4.2 km/h 4.0 mph /  6.4 km/h 85 % 0.00 in /  0 mm
18:26 70.5 °F /  21.4 °C 65.8 °F /  18.8 °C 29.83 in /  1010 hPa South 5.0 mph /  8 km/h 6.9 mph /  11.1 km/h 85 % 0.00 in /  0 mm
18:31 70.3 °F /  21.3 °C 65.6 °F /  18.7 °C 29.81 in /  1009.4 hPa SW 3.2 mph /  5.1 km/h 8.1 mph /  13 km/h 85 % 0.00 in /  0 mm
18:36 70.3 °F /  21.3 °C 65.6 °F /  18.7 °C 29.80 in /  1009 hPa WSW 1.5 mph /  2.4 km/h 5.8 mph /  9.3 km/h 85 % 0.00 in /  0 mm
18:41 70.2 °F /  21.2 °C 65.1 °F /  18.4 °C 29.80 in /  1009 hPa WSW 1.4 mph /  2.3 km/h 4.0 mph /  6.4 km/h 84 % 0.00 in /  0 mm
18:46 70.1 °F /  21.2 °C 65.0 °F /  18.3 °C 29.80 in /  1009 hPa WSW 0.4 mph /  0.6 km/h 2.3 mph /  3.7 km/h 84 % 0.00 in /  0 mm
18:51 70.1 °F /  21.2 °C 65.4 °F /  18.6 °C 29.80 in /  1009 hPa WSW 0.7 mph /  1.1 km/h 2.0 mph /  3.2 km/h 85 % 0.00 in /  0 mm
18:56 70.1 °F /  21.2 °C 65.4 °F /  18.6 °C 29.80 in /  1009 hPa SW 3.0 mph /  4.8 km/h 5.8 mph /  9.3 km/h 85 % 0.00 in /  0 mm
19:01 70.1 °F /  21.2 °C 65.4 °F /  18.6 °C 29.79 in /  1008.7 hPa SW 2.4 mph /  3.9 km/h 3.5 mph /  5.6 km/h 85 % 0.00 in /  0 mm
19:04 70.1 °F /  21.2 °C 65.7 °F /  18.7 °C 29.80 in /  1009 hPa SW 0.5 mph /  0.8 km/h 3.5 mph /  5.6 km/h 86 % 0.00 in /  0 mm
19:09 70.1 °F /  21.2 °C 65.7 °F /  18.7 °C 29.81 in /  1009.4 hPa WSW 0.4 mph /  0.6 km/h 2.3 mph /  3.7 km/h 86 % 0.00 in /  0 mm
19:14 70.0 °F /  21.1 °C 65.6 °F /  18.7 °C 29.80 in /  1009 hPa SE 2.1 mph /  3.4 km/h 5.8 mph /  9.3 km/h 86 % 0.00 in /  0 mm
19:19 69.9 °F /  21.1 °C 65.5 °F /  18.6 °C 29.79 in /  1008.7 hPa WSW 2.0 mph /  3.2 km/h 4.6 mph /  7.4 km/h 86 % 0.00 in /  0 mm
19:24 69.8 °F /  21 °C 65.4 °F /  18.6 °C 29.79 in /  1008.7 hPa SW 3.4 mph /  5.5 km/h 6.9 mph /  11.1 km/h 86 % 0.00 in /  0 mm
19:29 69.8 °F /  21 °C 65.4 °F /  18.6 °C 29.79 in /  1008.7 hPa WSW 1.4 mph /  2.3 km/h 5.8 mph /  9.3 km/h 86 % 0.00 in /  0 mm
19:34 69.7 °F /  20.9 °C 65.3 °F /  18.5 °C 29.79 in /  1008.7 hPa SW 2.0 mph /  3.2 km/h 5.0 mph /  8 km/h 86 % 0.00 in /  0 mm
19:39 69.6 °F /  20.9 °C 65.2 °F /  18.4 °C 29.79 in /  1008.7 hPa SSW 3.3 mph /  5.3 km/h 5.8 mph /  9.3 km/h 86 % 0.00 in /  0 mm
19:44 69.5 °F /  20.8 °C 65.1 °F /  18.4 °C 29.79 in /  1008.7 hPa SW 0.3 mph /  0.5 km/h 3.5 mph /  5.6 km/h 86 % 0.00 in /  0 mm
19:49 69.3 °F /  20.7 °C 65.3 °F /  18.5 °C 29.78 in /  1008.4 hPa SSW 1.0 mph /  1.6 km/h 3.5 mph /  5.6 km/h 87 % 0.00 in /  0 mm
19:55 69.2 °F /  20.7 °C 65.2 °F /  18.4 °C 29.78 in /  1008.4 hPa SW 2.6 mph /  4.2 km/h 4.0 mph /  6.4 km/h 87 % 0.00 in /  0 mm
20:00 69.1 °F /  20.6 °C 65.1 °F /  18.4 °C 29.77 in /  1008 hPa SSW 0.9 mph /  1.4 km/h 4.6 mph /  7.4 km/h 87 % 0.00 in /  0 mm
20:05 69.0 °F /  20.6 °C 65.3 °F /  18.5 °C 29.77 in /  1008 hPa SSW 1.6 mph /  2.6 km/h 3.5 mph /  5.6 km/h 88 % 0.00 in /  0 mm
20:10 68.9 °F /  20.5 °C 65.2 °F /  18.4 °C 29.79 in /  1008.7 hPa SSW 0.4 mph /  0.6 km/h 2.3 mph /  3.7 km/h 88 % 0.00 in /  0 mm
20:15 68.8 °F /  20.4 °C 65.1 °F /  18.4 °C 29.76 in /  1007.7 hPa South 2.7 mph /  4.3 km/h 5.8 mph /  9.3 km/h 88 % 0.00 in /  0 mm
20:20 68.6 °F /  20.3 °C 65.2 °F /  18.4 °C 29.76 in /  1007.7 hPa SW 2.6 mph /  4.2 km/h 9.2 mph /  14.8 km/h 89 % 0.00 in /  0 mm
20:25 68.5 °F /  20.3 °C 65.1 °F /  18.4 °C 29.76 in /  1007.7 hPa SSW 2.6 mph /  4.2 km/h 7.0 mph /  11.3 km/h 89 % 0.00 in /  0 mm
20:30 68.4 °F /  20.2 °C 65.0 °F /  18.3 °C 29.75 in /  1007.3 hPa SW 4.3 mph /  6.9 km/h 8.1 mph /  13 km/h 89 % 0.00 in /  0 mm
20:35 68.3 °F /  20.2 °C 64.9 °F /  18.3 °C 29.75 in /  1007.3 hPa SSW 1.4 mph /  2.3 km/h 3.5 mph /  5.6 km/h 89 % 0.00 in /  0 mm
20:40 68.2 °F /  20.1 °C 64.8 °F /  18.2 °C 29.76 in /  1007.7 hPa SW 4.4 mph /  7.1 km/h 10.4 mph /  16.7 km/h 89 % 0.00 in /  0 mm
20:45 68.1 °F /  20.1 °C 64.7 °F /  18.2 °C 29.78 in /  1008.4 hPa SSW 3.7 mph /  6 km/h 9.2 mph /  14.8 km/h 89 % 0.00 in /  0 mm
20:50 68.0 °F /  20 °C 64.6 °F /  18.1 °C 29.76 in /  1007.7 hPa SW 1.4 mph /  2.3 km/h 3.5 mph /  5.6 km/h 89 % 0.00 in /  0 mm
20:55 68.0 °F /  20 °C 64.6 °F /  18.1 °C 29.76 in /  1007.7 hPa SSW 3.1 mph /  5 km/h 9.2 mph /  14.8 km/h 89 % 0.00 in /  0 mm
21:00 68.0 °F /  20 °C 64.6 °F /  18.1 °C 29.76 in /  1007.7 hPa East 1.4 mph /  2.3 km/h 8.1 mph /  13 km/h 89 % 0.00 in /  0 mm
21:05 67.9 °F /  19.9 °C 64.5 °F /  18.1 °C 29.76 in /  1007.7 hPa North 0.2 mph /  0.3 km/h 3.5 mph /  5.6 km/h 89 % 0.00 in /  0 mm
21:10 67.9 °F /  19.9 °C 64.5 °F /  18.1 °C 29.76 in /  1007.7 hPa SW 3.9 mph /  6.3 km/h 4.6 mph /  7.4 km/h 89 % 0.00 in /  0 mm
21:15 67.9 °F /  19.9 °C 64.5 °F /  18.1 °C 29.76 in /  1007.7 hPa SSW 4.8 mph /  7.7 km/h 10.4 mph /  16.7 km/h 89 % 0.00 in /  0 mm
21:20 67.9 °F /  19.9 °C 64.2 °F /  17.9 °C 29.76 in /  1007.7 hPa SW 3.5 mph /  5.6 km/h 8.0 mph /  12.9 km/h 88 % 0.00 in /  0 mm
21:25 67.9 °F /  19.9 °C 64.2 °F /  17.9 °C 29.76 in /  1007.7 hPa West 3.8 mph /  6.1 km/h 11.5 mph /  18.5 km/h 88 % 0.00 in /  0 mm
21:30 68.0 °F /  20 °C 64.3 °F /  17.9 °C 29.76 in /  1007.7 hPa WSW 2.9 mph /  4.7 km/h 3.5 mph /  5.6 km/h 88 % 0.00 in /  0 mm
21:35 68.0 °F /  20 °C 64.3 °F /  17.9 °C 29.76 in /  1007.7 hPa SW 0.4 mph /  0.6 km/h 4.6 mph /  7.4 km/h 88 % 0.00 in /  0 mm
21:40 68.0 °F /  20 °C 64.3 °F /  17.9 °C 29.76 in /  1007.7 hPa West 3.0 mph /  4.8 km/h 6.0 mph /  9.7 km/h 88 % 0.00 in /  0 mm
21:45 68.0 °F /  20 °C 64.3 °F /  17.9 °C 29.76 in /  1007.7 hPa NW 2.2 mph /  3.5 km/h 7.0 mph /  11.3 km/h 88 % 0.00 in /  0 mm
21:50 68.0 °F /  20 °C 64.3 °F /  17.9 °C 29.76 in /  1007.7 hPa SSW 0.6 mph /  1 km/h 4.6 mph /  7.4 km/h 88 % 0.00 in /  0 mm
21:55 68.0 °F /  20 °C 64.3 °F /  17.9 °C 29.76 in /  1007.7 hPa SW 5.4 mph /  8.7 km/h 9.2 mph /  14.8 km/h 88 % 0.00 in /  0 mm
22:00 67.9 °F /  19.9 °C 64.5 °F /  18.1 °C 29.78 in /  1008.4 hPa SSW 5.5 mph /  8.9 km/h 9.2 mph /  14.8 km/h 89 % 0.00 in /  0 mm
22:05 67.9 °F /  19.9 °C 64.5 °F /  18.1 °C 29.76 in /  1007.7 hPa WSW 1.8 mph /  2.9 km/h 5.8 mph /  9.3 km/h 89 % 0.00 in /  0 mm
22:10 67.9 °F /  19.9 °C 64.5 °F /  18.1 °C 29.76 in /  1007.7 hPa SW 2.8 mph /  4.5 km/h 4.6 mph /  7.4 km/h 89 % 0.00 in /  0 mm
22:15 67.9 °F /  19.9 °C 64.5 °F /  18.1 °C 29.76 in /  1007.7 hPa SW 1.6 mph /  2.6 km/h 5.8 mph /  9.3 km/h 89 % 0.00 in /  0 mm
22:21 67.8 °F /  19.9 °C 64.4 °F /  18 °C 29.76 in /  1007.7 hPa SW 2.7 mph /  4.3 km/h 5.8 mph /  9.3 km/h 89 % 0.00 in /  0 mm
22:26 67.8 °F /  19.9 °C 64.8 °F /  18.2 °C 29.74 in /  1007 hPa SSW 0.5 mph /  0.8 km/h 4.6 mph /  7.4 km/h 90 % 0.00 in /  0 mm
22:31 67.8 °F /  19.9 °C 64.8 °F /  18.2 °C 29.74 in /  1007 hPa SSW 2.6 mph /  4.2 km/h 8.1 mph /  13 km/h 90 % 0.00 in /  0 mm
22:35 67.8 °F /  19.9 °C 65.1 °F /  18.4 °C 29.74 in /  1007 hPa SSW 2.5 mph /  4 km/h 4.6 mph /  7.4 km/h 91 % 0.00 in /  0 mm
22:41 67.7 °F /  19.8 °C 65.0 °F /  18.3 °C 29.75 in /  1007.3 hPa SSW 3.2 mph /  5.1 km/h 5.0 mph /  8 km/h 91 % 0.00 in /  0 mm
22:46 67.7 °F /  19.8 °C 65.0 °F /  18.3 °C 29.75 in /  1007.3 hPa SW 2.0 mph /  3.2 km/h 7.0 mph /  11.3 km/h 91 % 0.00 in /  0 mm
22:51 67.7 °F /  19.8 °C 65.3 °F /  18.5 °C 29.77 in /  1008 hPa SW 2.0 mph /  3.2 km/h 5.0 mph /  8 km/h 92 % 0.00 in /  0 mm
22:56 67.7 °F /  19.8 °C 65.3 °F /  18.5 °C 29.76 in /  1007.7 hPa SSW 3.0 mph /  4.8 km/h 9.0 mph /  14.5 km/h 92 % 0.00 in /  0 mm
23:01 67.8 °F /  19.9 °C 65.4 °F /  18.6 °C 29.77 in /  1008 hPa SSE 1.1 mph /  1.8 km/h 6.9 mph /  11.1 km/h 92 % 0.00 in /  0 mm
23:06 67.8 °F /  19.9 °C 65.4 °F /  18.6 °C 29.77 in /  1008 hPa SSW 2.8 mph /  4.5 km/h 10.4 mph /  16.7 km/h 92 % 0.00 in /  0 mm
23:11 67.8 °F /  19.9 °C 65.4 °F /  18.6 °C 29.76 in /  1007.7 hPa SW 3.9 mph /  6.3 km/h 7.0 mph /  11.3 km/h 92 % 0.00 in /  0 mm
23:16 67.8 °F /  19.9 °C 65.7 °F /  18.7 °C 29.77 in /  1008 hPa WSW 3.8 mph /  6.1 km/h 5.8 mph /  9.3 km/h 93 % 0.00 in /  0 mm
23:26 67.8 °F /  19.9 °C 65.7 °F /  18.7 °C 29.77 in /  1008 hPa SSW 1.3 mph /  2.1 km/h 5.0 mph /  8 km/h 93 % 0.00 in /  0 mm
23:31 67.8 °F /  19.9 °C 65.7 °F /  18.7 °C 29.76 in /  1007.7 hPa SW 2.1 mph /  3.4 km/h 3.5 mph /  5.6 km/h 93 % 0.00 in /  0 mm
23:36 67.8 °F /  19.9 °C 65.7 °F /  18.7 °C 29.75 in /  1007.3 hPa SW 2.7 mph /  4.3 km/h 4.0 mph /  6.4 km/h 93 % 0.00 in /  0 mm
23:41 67.9 °F /  19.9 °C 65.8 °F /  18.8 °C 29.75 in /  1007.3 hPa SSW 2.7 mph /  4.3 km/h 5.8 mph /  9.3 km/h 93 % 0.00 in /  0 mm
23:44 67.9 °F /  19.9 °C 65.8 °F /  18.8 °C 29.75 in /  1007.3 hPa SW 0.5 mph /  0.8 km/h 3.5 mph /  5.6 km/h 93 % 0.00 in /  0 mm
23:49 67.9 °F /  19.9 °C 65.8 °F /  18.8 °C 29.75 in /  1007.3 hPa SW 1.9 mph /  3.1 km/h 3.5 mph /  5.6 km/h 93 % 0.00 in /  0 mm
23:54 67.9 °F /  19.9 °C 65.8 °F /  18.8 °C 29.76 in /  1007.7 hPa WSW 6.8 mph /  10.9 km/h 7.0 mph /  11.3 km/h 93 % 0.00 in /  0 mm
23:59 67.9 °F /  19.9 °C 65.8 °F /  18.8 °C 29.76 in /  1007.7 hPa SSW 2.5 mph /  4 km/h 6.0 mph /  9.7 km/h 93 % 0.00 in /  0 mm
Crab Meadow Weather
Compliments of Weather Underground - 3 mb

Script developed by  Jim McMurry - jmcmurry@mwt.net Adapted for the template by  Wim van der Kuil - Leuven-Template.eu

Snow: Snowflakes generally fall from the sky at speeds between one and five miles per hour.